[[{"header":{"parameterUnit":"m.s-1","parameterCategory":1,"la1":30.2991,"la2":30.254,"lo1":-89.0895,"lo2":-89.0444,"dy":0.0017,"dx":0.0017,"nx":28,"ny":28,"refTime":"2025-05-01T03:00:00:Z","depth":0,"parameterNumber":2,"parameterNumberName":"U-component_of_WINDS"},"data":[0,0,0,0,0,0,0,0,0,0,0,0,0,0,0,0,0,0,0,0,0,0,0,0,0,0,0,0,0,0,0,0,0,0,0,0,0,0,0,0,0,0,0,0,0,0,0,0,0,0,0,0,0,0,0,0,0,0,0.0931,0.0931,0,0.0867,0.0867,0.0866,0.0819,0.0819,0.0819,0.0818,0.0749,0.0747,0.0746,0,0,0,0,0,0,0,0,0,0,0,0,0,0.1009,0.1008,0.0932,0.0931,0.093,0.0867,0.0867,0.0866,0.0819,0.0819,0.0819,0.0818,0.0749,0.0747,0.0746,0,0,0,0,0,0,0,0,0,0,0,0,0,0.0963,0.1007,0.0932,0.0899,0.0896,0.0868,0.0867,0.0865,0.082,0.0819,0.0818,0.0818,0.075,0.0748,0.0745,0.0743,0,0,0.0739,0.0738,0,0,0,0,0,0,0,0,0.0966,0.096,0.0905,0.0902,0.0898,0.0851,0.0868,0.0824,0.082,0.0848,0.0818,0.0818,0.0783,0.0778,0.0767,0.074,0.0737,0.0738,0.0737,0.0736,0.0735,0,0,0,0,0,0,0,0.0969,0.0963,0.0906,0.0904,0.09,0.0886,0.0879,0.086,0.0819,0.0846,0.0842,0.0836,0.0781,0.0769,0.0765,0.0736,0.0738,0.0736,0.0735,0.0734,0.0701,0.0701,0,0,0,0,0,0,0.0978,0.0966,0.0908,0.0904,0.0931,0.0886,0.0878,0.0866,0.082,0.0812,0.0836,0.0834,0.0773,0.0768,0.0762,0.0755,0.0736,0.0734,0.0733,0.07,0.0701,0.0701,0,0,0,0,0,0,0.098,0.0973,0.0911,0.0934,0.0925,0.0885,0.0873,0.0865,0.0854,0.0812,0.0804,0.0832,0.0773,0.0766,0.0748,0.0752,0.0733,0.0731,0.07,0.07,0.0701,0.0742,0,0,0,0,0,0,0.0982,0.0974,0.0974,0.0934,0.0924,0.0899,0.0873,0.0865,0.0851,0.0847,0.0807,0.0799,0.0772,0.0752,0.0746,0.0749,0.0729,0.0699,0.07,0.0701,0.074,0.0744,0.0747,0,0,0,0,0,0.0985,0.0988,0.0974,0.0968,0.0923,0.0899,0.0893,0.0863,0.0851,0.085,0.0823,0.0801,0.0753,0.075,0.0743,0.0746,0.0699,0.07,0.0701,0.0739,0.0743,0.0747,0,0,0,0,0,0,0.1028,0.0982,0.0967,0.0957,0.0933,0.0892,0.0889,0.0869,0.0846,0.0844,0.0805,0.0796,0.0782,0.0762,0.076,0.074,0.0723,0.0722,0.0754,0.0758,0.0762,0.0767,0.0727,0,0,0,0,0,0.1037,0.1023,0.0982,0.0977,0.0966,0.093,0.0918,0.0897,0.0869,0.0859,0.083,0.0803,0.0782,0.0769,0.0747,0.0737,0.0726,0.0735,0.0738,0.0742,0.0742,0.0733,0.0736,0.0705,0.0705,0.0705,0,0,0.1054,0.1027,0.102,0.0985,0.0964,0.0949,0.0922,0.0907,0.0894,0.0856,0.0838,0.0816,0.0783,0.0769,0.0761,0.0751,0.0748,0.0743,0.0746,0.0744,0.0734,0.0737,0.074,0.0705,0.0705,0.0705,0,0,0.1077,0.1056,0.1049,0.1028,0.0996,0.0972,0.097,0.0932,0.0917,0.0898,0.0868,0.0852,0.0816,0.0794,0.0778,0.0791,0.0769,0.0785,0.0804,0.0796,0.0798,0.08,0.0804,0.0806,0.0785,0.0785,0.0785,0,0.1102,0.108,0.1048,0.1035,0.1019,0.0985,0.0976,0.0957,0.0919,0.0909,0.0899,0.0852,0.0828,0.0807,0.081,0.0799,0.0794,0.0789,0.0801,0.0802,0.0804,0.0807,0.0808,0.0787,0.0787,0.0787,0.0786,0,0.1111,0.1096,0.1094,0.1059,0.1044,0.1033,0.0998,0.0986,0.0965,0.0941,0.0921,0.089,0.0861,0.0854,0.0834,0.083,0.0825,0.0808,0.079,0.0809,0.0811,0.0812,0.079,0.0789,0.0789,0.0788,0,0,0.1161,0.1109,0.1108,0.1092,0.1053,0.104,0.1026,0.0999,0.0988,0.0963,0.095,0.092,0.0904,0.0885,0.0861,0.0854,0.0865,0.0838,0.0837,0.0844,0.0857,0.087,0.0872,0.085,0.085,0.085,0.086,0,0.1178,0.1154,0.1125,0.111,0.1094,0.106,0.1048,0.1022,0.0999,0.0981,0.0954,0.0934,0.0915,0.0903,0.0895,0.0866,0.0867,0.0865,0.0836,0.0835,0.0846,0.0874,0.0887,0.0898,0.0861,0.0861,0.0861,0,0.1195,0.1173,0.1157,0.1119,0.1111,0.1101,0.1073,0.1056,0.1025,0.1009,0.0988,0.0962,0.0944,0.0928,0.0902,0.0901,0.0887,0.087,0.087,0.0866,0.085,0.087,0.0901,0.0902,0.0862,0.0862,0.0862,0,0.1232,0.1198,0.1183,0.117,0.1126,0.1119,0.11,0.1069,0.1053,0.1028,0.1017,0.0989,0.0974,0.0952,0.0918,0.091,0.0895,0.0876,0.0879,0.088,0.0878,0.0878,0.0906,0.0869,0.0869,0.0869,0.0869,0,0.1254,0.1246,0.1199,0.1191,0.1179,0.1144,0.1133,0.1111,0.1083,0.1068,0.1036,0.1022,0.0979,0.0959,0.0932,0.0913,0.0907,0.0891,0.0884,0.0894,0.0896,0.0885,0.0883,0.087,0.087,0.0869,0.0869,0,0.1294,0.1263,0.1245,0.1204,0.1193,0.1187,0.1151,0.114,0.1115,0.1096,0.1089,0.1048,0.1023,0.0988,0.0951,0.0933,0.0918,0.0907,0.0929,0.0925,0.093,0.0929,0.0951,0.0952,0.0915,0.0915,0.0916,0,0.131,0.1303,0.1261,0.125,0.1232,0.1213,0.1198,0.1162,0.1147,0.111,0.1103,0.1076,0.1052,0.1013,0.0979,0.0951,0.0938,0.0948,0.0934,0.0943,0.0937,0.0938,0.0937,0.0951,0.0952,0.0952,0.0953,0,0.1342,0.1326,0.1306,0.128,0.1263,0.124,0.1216,0.1208,0.1166,0.115,0.1125,0.1107,0.107,0.1042,0.1009,0.0987,0.0962,0.0957,0.0956,0.0966,0.0979,0.0971,0.0938,0.0957,0.0957,0.0956,0.0956,0.0956,0.1369,0.1361,0.1331,0.1309,0.1287,0.1264,0.1252,0.1225,0.1204,0.1172,0.1152,0.1127,0.1094,0.1047,0.1026,0.1004,0.0994,0.0993,0.0993,0.0993,0.0996,0.0983,0.0998,0.0998,0.0998,0.0998,0.0997,0,0.1399,0.1377,0.1358,0.1325,0.1307,0.1287,0.1259,0.1245,0.1224,0.1196,0.1174,0.1143,0.1116,0.108,0.105,0.1039,0.1027,0.1032,0.1033,0.1028,0.1007,0.1011,0.1043,0.1043,0.1043,0.1043,0.1043,0.1043,0.1412,0.1397,0.1377,0.135,0.1328,0.1305,0.129,0.1268,0.1246,0.1214,0.1192,0.1169,0.1137,0.1104,0.1077,0.1067,0.1057,0.1066,0.1052,0.1033,0.1029,0.1025,0.1029,0.1064,0.1064,0.1074,0.1074,0.1074]},{"header":{"parameterUnit":"m.s-1","parameterCategory":1,"la1":30.2991,"la2":30.254,"lo1":-89.0895,"lo2":-89.0444,"dy":0.0017,"dx":0.0017,"nx":28,"ny":28,"refTime":"2025-05-01T03:00:00:Z","depth":0,"parameterNumber":3,"parameterNumberName":"V-component_of_WINDS"},"data":[0,0,0,0,0,0,0,0,0,0,0,0,0,0,0,0,0,0,0,0,0,0,0,0,0,0,0,0,0,0,0,0,0,0,0,0,0,0,0,0,0,0,0,0,0,0,0,0,0,0,0,0,0,0,0,0,0,0,5.8458,5.8457,0,5.8409,5.8408,5.8408,5.8378,5.8378,5.8377,5.8377,5.8322,5.8321,5.832,0,0,0,0,0,0,0,0,0,0,0,0,0,5.8523,5.8522,5.8458,5.8457,5.8457,5.8409,5.8408,5.8408,5.8378,5.8378,5.8377,5.8377,5.8323,5.8321,5.832,0,0,0,0,0,0,0,0,0,0,0,0,0,5.8486,5.8522,5.8458,5.8436,5.8434,5.8409,5.8408,5.8407,5.8378,5.8378,5.8377,5.8377,5.8323,5.8321,5.8319,5.8311,0,0,5.8313,5.8312,0,0,0,0,0,0,0,0,5.8488,5.8484,5.844,5.8438,5.8435,5.8399,5.8411,5.8375,5.8378,5.8399,5.8377,5.8377,5.8348,5.8344,5.8335,5.8309,5.8306,5.8313,5.8312,5.8311,5.8311,0,0,0,0,0,0,0,5.8491,5.8486,5.8438,5.8439,5.8436,5.8428,5.8422,5.8404,5.8375,5.8397,5.8395,5.839,5.8346,5.8337,5.8333,5.8306,5.8313,5.8311,5.831,5.8309,5.8272,5.8272,0,0,0,0,0,0,5.8497,5.8488,5.844,5.8437,5.8462,5.8427,5.8421,5.8411,5.8375,5.837,5.839,5.8388,5.834,5.8336,5.8331,5.832,5.8311,5.8309,5.8308,5.8272,5.8272,5.8272,0,0,0,0,0,0,5.8499,5.8493,5.8442,5.8462,5.8455,5.8426,5.8415,5.841,5.8401,5.837,5.8364,5.8386,5.834,5.8334,5.8317,5.8318,5.8308,5.8307,5.8271,5.8272,5.8272,5.8298,0,0,0,0,0,0,5.8501,5.8494,5.8491,5.8462,5.8454,5.843,5.8415,5.8409,5.8398,5.8395,5.8364,5.8359,5.8339,5.832,5.8315,5.8315,5.8305,5.8271,5.8272,5.8272,5.8297,5.8299,5.8301,0,0,0,0,0,5.8503,5.8499,5.8491,5.8486,5.845,5.843,5.8425,5.8404,5.8398,5.8395,5.8375,5.836,5.8319,5.8319,5.8313,5.8312,5.8271,5.8271,5.8272,5.8296,5.8299,5.8301,0,0,0,0,0,0,5.8527,5.8495,5.8486,5.8472,5.8454,5.8425,5.842,5.8407,5.8389,5.8387,5.836,5.8354,5.834,5.8324,5.8324,5.8303,5.8293,5.8293,5.8314,5.8316,5.8318,5.8322,5.8303,0,0,0,0,0,5.8531,5.8519,5.8491,5.8481,5.8473,5.8448,5.8438,5.8424,5.8404,5.8395,5.8374,5.8354,5.8337,5.8326,5.8308,5.8295,5.8288,5.8292,5.8294,5.8296,5.8295,5.8288,5.829,5.8274,5.8274,5.8274,0,0,5.8539,5.852,5.8513,5.8486,5.847,5.8457,5.8442,5.8428,5.8418,5.8392,5.8376,5.836,5.8336,5.8321,5.8314,5.8308,5.8298,5.8296,5.8298,5.8296,5.8289,5.8291,5.8292,5.8274,5.8274,5.8274,0,0,5.8546,5.853,5.8521,5.8507,5.8484,5.8468,5.8466,5.8439,5.8428,5.8411,5.8393,5.838,5.835,5.8334,5.8322,5.8325,5.8311,5.832,5.8331,5.8325,5.8326,5.8327,5.8329,5.833,5.832,5.832,5.832,0,5.8557,5.8538,5.8518,5.8506,5.8495,5.8474,5.8465,5.8451,5.8423,5.8415,5.841,5.8374,5.8356,5.8338,5.8339,5.833,5.8327,5.8323,5.8328,5.8328,5.8329,5.833,5.8331,5.8321,5.8321,5.8321,5.8321,0,5.8554,5.8541,5.8536,5.8512,5.8501,5.849,5.8468,5.8459,5.8446,5.843,5.8414,5.8392,5.837,5.8365,5.8351,5.8346,5.8343,5.8333,5.8322,5.8332,5.8333,5.8334,5.8323,5.8323,5.8322,5.8322,0,0,5.8573,5.854,5.8538,5.8528,5.8502,5.8491,5.848,5.8461,5.8454,5.8435,5.8425,5.8402,5.8393,5.838,5.8364,5.8359,5.8364,5.8349,5.8348,5.8353,5.8358,5.8366,5.8367,5.8355,5.8355,5.8355,5.836,0,5.8576,5.8556,5.8539,5.8525,5.8514,5.8495,5.8485,5.8468,5.8453,5.8441,5.8424,5.8408,5.8398,5.839,5.8384,5.8365,5.8365,5.8365,5.8345,5.8345,5.8352,5.8367,5.8375,5.838,5.836,5.836,5.836,0,5.8577,5.8562,5.8548,5.8525,5.852,5.8511,5.8493,5.8481,5.8462,5.8452,5.8438,5.8423,5.841,5.8402,5.8384,5.8384,5.8375,5.8365,5.8365,5.8362,5.8353,5.8365,5.8381,5.8382,5.836,5.836,5.836,0,5.8593,5.8569,5.8558,5.8549,5.8523,5.8518,5.8506,5.8486,5.8477,5.846,5.8454,5.8435,5.8425,5.8412,5.8392,5.8388,5.8376,5.8366,5.8367,5.8368,5.8365,5.8365,5.8381,5.8359,5.8359,5.8359,5.8359,0,5.8598,5.859,5.8565,5.8558,5.8549,5.8529,5.852,5.8507,5.849,5.848,5.8462,5.8453,5.8427,5.8415,5.8399,5.8387,5.8382,5.8374,5.837,5.8375,5.8377,5.8369,5.8368,5.836,5.836,5.836,5.836,0,5.8614,5.8597,5.8583,5.856,5.8554,5.8549,5.8528,5.8521,5.8506,5.8494,5.849,5.8467,5.8451,5.8431,5.8408,5.8398,5.8388,5.8381,5.8395,5.8392,5.8395,5.8395,5.8406,5.8406,5.8385,5.8385,5.8386,0,5.8618,5.8612,5.8589,5.8582,5.8572,5.856,5.8551,5.8531,5.8522,5.8501,5.8496,5.848,5.8466,5.8442,5.8423,5.8406,5.8399,5.8404,5.8396,5.8403,5.84,5.84,5.84,5.8406,5.8406,5.8406,5.8406,0,5.8629,5.8621,5.8609,5.8594,5.8584,5.8571,5.8557,5.8552,5.853,5.852,5.8506,5.8495,5.8474,5.8458,5.8439,5.8426,5.8413,5.8409,5.8409,5.8414,5.8423,5.8419,5.84,5.8409,5.8409,5.8408,5.8408,5.8408,5.8639,5.8633,5.8617,5.8604,5.8593,5.8581,5.8573,5.8559,5.8547,5.8529,5.8518,5.8504,5.8486,5.846,5.8448,5.8436,5.8431,5.843,5.8429,5.843,5.8432,5.8425,5.8433,5.8432,5.8432,5.8432,5.8432,0,5.8648,5.8638,5.8627,5.8609,5.8599,5.859,5.8574,5.8567,5.8555,5.854,5.8528,5.8512,5.8497,5.8477,5.8461,5.8456,5.8449,5.8452,5.8452,5.845,5.8437,5.844,5.8458,5.8458,5.8458,5.8458,5.8458,5.8458,5.8652,5.8643,5.8634,5.8618,5.8607,5.8595,5.8587,5.8576,5.8564,5.8548,5.8536,5.8524,5.8508,5.849,5.8477,5.8471,5.8466,5.8471,5.8464,5.8453,5.845,5.8448,5.845,5.847,5.847,5.8477,5.8477,5.8477]}]]